This is the latest recevied weather packets stored in our database for station/object UA1CAS-13. If no packets are shown the sender has not sent any weather packets the latest 10 day(s).
| Time | Temp. | Humidity | Pressure | Rain* | Wind** | Luminosity | Snow |
|---|---|---|---|---|---|---|---|
| 1778022101 | 6.11° C | 87% | 1004 hPa | - | - | - | - |
| 1778021200 | 6.11° C | 88% | 1003 hPa | - | - | - | - |
| 1778020299 | 5.56° C | 88% | 1003 hPa | - | - | - | - |
| 1778019398 | 5.56° C | 88% | 1003 hPa | - | - | - | - |
| 1778018496 | 5.56° C | 86% | 1003 hPa | - | - | - | - |
| 1778017595 | 5° C | 86% | 1003 hPa | - | - | - | - |
| 1778016694 | 5.56° C | 83% | 1003 hPa | - | - | - | - |
| 1778015793 | 5.56° C | 82% | 1003 hPa | - | - | - | - |
| 1778014892 | 6.11° C | 82% | 1003 hPa | - | - | - | - |
| 1778013991 | 6.11° C | 79% | 1003 hPa | - | - | - | - |
| 1778013090 | 5.56° C | 75% | 1003 hPa | - | - | - | - |
| 1778012189 | 6.11° C | 72% | 1003 hPa | - | - | - | - |
| 1778011288 | 7.22° C | 71% | 1003 hPa | - | - | - | - |
| 1778010387 | 7.78° C | 69% | 1003 hPa | - | - | - | - |
| 1778009486 | 8.33° C | 68% | 1003 hPa | - | - | - | - |
| 1778008584 | 8.33° C | 64% | 1003 hPa | - | - | - | - |
| 1778007684 | 8.89° C | 58% | 1003 hPa | - | - | - | - |
| 1778006782 | 10° C | 55% | 1003 hPa | - | - | - | - |
| 1778005881 | 10° C | 53% | 1002 hPa | - | - | - | - |
| 1778004980 | 10.56° C | 51% | 1002 hPa | - | - | - | - |
| 1778004079 | 10.56° C | 49% | 1002 hPa | - | - | - | - |
| 1778003178 | 11.11° C | 51% | 1002 hPa | - | - | - | - |
| 1778002276 | 11.11° C | 64% | 1002 hPa | - | - | - | - |
| 1778001375 | 11.11° C | 62% | 1002 hPa | - | - | - | - |
| 1778000474 | 11.67° C | 61% | 1002 hPa | - | - | - | - |
* Rain since midnight (hover to see other rain measurements)
** Current wind speed in m/s (hover to see current wind gust speed)